Location: Ettringen
(48.1054°N, 10.6545°E)
Time: 06:25:13
(UTC+00:00)

Cosmos 2082 Rocket - Pass Details

Date: 18 November 2025
Orbit: 834 x 851 km, 71.0° (Epoch: 06 December)

Event Time Altitude Azimuth Distance (km) Brightness Sun altitude
Rises 17:31:34 0° 330° (NNW) 3,392 5.6 -19.1°
Reaches altitude 10° 17:34:01 10° 327° (NNW) 2,453 4.9 -19.5°
Maximum altitude 17:39:35 65° 247° (WSW) 914 2.5 -20.4°
Drops below altitude 10° 17:45:07 10° 167° (SSE) 2,440 4.5 -21.3°
Sets 17:47:33 0° 164° (SSE) 3,372 5.2 -21.7°
